Time,TemperatureF,DewpointF,PressureIn,WindDirection,WindDirectionDegrees,WindSpeedMPH,WindSpeedGustMPH,Humidity,HourlyPrecipIn,Conditions,Clouds,dailyrainin,SoftwareType,DateUTC
2013-08-04 00:02:00,67.0,61.0,-100.00,ENE,68,6.0,-999.0,81,-99.99,,,-99.99,,2013-08-04 05:02:00,
2013-08-04 00:12:00,67.0,61.0,-100.00,ENE,68,6.0,-999.0,81,-99.99,,,-99.99,,2013-08-04 05:12:00,
2013-08-04 00:22:00,66.0,61.0,-100.00,ENE,68,8.0,-999.0,82,-99.99,,,-99.99,,2013-08-04 05:22:00,
2013-08-04 00:32:00,66.0,60.0,-100.00,ENE,68,6.0,-999.0,81,-99.99,,,-99.99,,2013-08-04 05:32:00,
2013-08-04 00:42:00,66.0,60.0,-100.00,ENE,68,6.0,-999.0,81,-99.99,,,-99.99,,2013-08-04 05:42:00,
2013-08-04 00:52:00,66.0,60.0,-100.00,East,90,5.0,-999.0,81,-99.99,,,-99.99,,2013-08-04 05:52:00,
2013-08-04 01:02:00,66.0,60.0,-100.00,East,90,8.0,-999.0,81,-99.99,,,-99.99,,2013-08-04 06:02:00,
2013-08-04 01:12:00,66.0,60.0,-100.00,East,90,8.0,-999.0,81,-99.99,,,-99.99,,2013-08-04 06:12:00,
2013-08-04 01:22:00,66.0,60.0,-100.00,East,90,7.0,-999.0,80,-99.99,,,-99.99,,2013-08-04 06:22:00,
2013-08-04 01:32:00,66.0,60.0,-100.00,East,90,6.0,-999.0,80,-99.99,,,-99.99,,2013-08-04 06:32:00,
2013-08-04 01:43:00,66.0,60.0,-100.00,East,90,6.0,-999.0,80,-99.99,,,-99.99,,2013-08-04 06:43:00,
2013-08-04 01:52:00,67.0,59.0,-100.00,East,90,8.0,-999.0,77,-99.99,,,-99.99,,2013-08-04 06:52:00,
2013-08-04 02:02:00,67.0,59.0,-100.00,East,90,10.0,-999.0,75,-99.99,,,-99.99,,2013-08-04 07:02:00,
2013-08-04 02:12:00,67.0,59.0,-100.00,East,90,10.0,-999.0,75,-99.99,,,-99.99,,2013-08-04 07:12:00,
2013-08-04 02:22:00,67.0,59.0,-100.00,East,90,10.0,-999.0,75,-99.99,,,-99.99,,2013-08-04 07:22:00,
2013-08-04 02:32:00,67.0,58.0,-100.00,East,90,10.0,-999.0,73,-99.99,,,-99.99,,2013-08-04 07:32:00,
2013-08-04 02:42:00,67.0,58.0,-100.00,East,90,10.0,-999.0,73,-99.99,,,-99.99,,2013-08-04 07:42:00,
2013-08-04 02:52:00,67.0,58.0,-100.00,East,90,8.0,-999.0,74,-99.99,,,-99.99,,2013-08-04 07:52:00,
2013-08-04 03:02:00,67.0,58.0,-100.00,East,90,8.0,-999.0,73,-99.99,,,-99.99,,2013-08-04 08:02:00,
2013-08-04 03:12:00,67.0,58.0,-100.00,East,90,8.0,-999.0,73,-99.99,,,-99.99,,2013-08-04 08:12:00,
2013-08-04 03:22:00,67.0,58.0,-100.00,East,90,8.0,-999.0,74,-99.99,,,-99.99,,2013-08-04 08:22:00,
2013-08-04 03:33:00,66.0,59.0,-100.00,ESE,113,7.0,-999.0,77,-99.99,,,-99.99,,2013-08-04 08:33:00,
2013-08-04 03:43:00,66.0,59.0,-100.00,ESE,113,7.0,-999.0,77,-99.99,,,-99.99,,2013-08-04 08:43:00,
2013-08-04 03:53:00,66.0,59.0,-100.00,ESE,113,6.0,-999.0,78,-99.99,,,-99.99,,2013-08-04 08:53:00,
2013-08-04 04:02:00,66.0,59.0,-100.00,ESE,113,6.0,-999.0,78,-99.99,,,-99.99,,2013-08-04 09:02:00,
2013-08-04 04:12:00,66.0,59.0,-100.00,ESE,113,6.0,-999.0,78,-99.99,,,-99.99,,2013-08-04 09:12:00,
2013-08-04 04:22:00,66.0,59.0,-100.00,ESE,113,6.0,-999.0,77,-99.99,,,-99.99,,2013-08-04 09:22:00,
2013-08-04 04:32:00,66.0,59.0,-100.00,ESE,113,7.0,-999.0,77,-99.99,,,-99.99,,2013-08-04 09:32:00,
2013-08-04 04:42:00,66.0,59.0,-100.00,ESE,113,7.0,-999.0,77,-99.99,,,-99.99,,2013-08-04 09:42:00,
2013-08-04 04:52:00,66.0,59.0,-100.00,ESE,113,8.0,-999.0,77,-99.99,,,-99.99,,2013-08-04 09:52:00,
2013-08-04 05:02:00,66.0,59.0,-100.00,ESE,113,7.0,-999.0,78,-99.99,,,-99.99,,2013-08-04 10:02:00,
2013-08-04 05:12:00,66.0,59.0,-100.00,ESE,113,7.0,-999.0,78,-99.99,,,-99.99,,2013-08-04 10:12:00,
2013-08-04 05:22:00,66.0,58.0,-100.00,ESE,113,8.0,-999.0,76,-99.99,,,-99.99,,2013-08-04 10:22:00,
2013-08-04 05:32:00,66.0,59.0,-100.00,ESE,113,6.0,-999.0,78,-99.99,,,-99.99,,2013-08-04 10:32:00,
2013-08-04 05:42:00,66.0,59.0,-100.00,ESE,113,6.0,-999.0,78,-99.99,,,-99.99,,2013-08-04 10:42:00,
2013-08-04 05:53:00,66.0,58.0,-100.00,East,90,8.0,-999.0,75,-99.99,,,-99.99,,2013-08-04 10:53:00,
2013-08-04 06:02:00,66.0,58.0,-100.00,East,90,6.0,-999.0,76,-99.99,,,-99.99,,2013-08-04 11:02:00,
2013-08-04 06:12:00,66.0,58.0,-100.00,East,90,6.0,-999.0,76,-99.99,,,-99.99,,2013-08-04 11:12:00,
2013-08-04 06:22:00,66.0,58.0,-100.00,East,90,7.0,-999.0,77,-99.99,,,-99.99,,2013-08-04 11:22:00,
2013-08-04 06:32:00,65.0,58.0,-100.00,East,90,9.0,-999.0,79,-99.99,,,-99.99,,2013-08-04 11:32:00,
2013-08-04 06:42:00,65.0,58.0,-100.00,East,90,9.0,-999.0,79,-99.99,,,-99.99,,2013-08-04 11:42:00,
2013-08-04 06:53:00,65.0,58.0,-100.00,East,90,9.0,-999.0,78,-99.99,,,-99.99,,2013-08-04 11:53:00,
2013-08-04 07:02:00,65.0,58.0,-100.00,East,90,9.0,-999.0,78,-99.99,,,-99.99,,2013-08-04 12:02:00,
2013-08-04 07:12:00,65.0,58.0,-100.00,East,90,9.0,-999.0,78,-99.99,,,-99.99,,2013-08-04 12:12:00,
2013-08-04 07:22:00,65.0,58.0,-100.00,East,90,10.0,-999.0,77,-99.99,,,-99.99,,2013-08-04 12:22:00,
2013-08-04 07:32:00,65.0,58.0,-100.00,ESE,113,10.0,-999.0,76,-99.99,,,-99.99,,2013-08-04 12:32:00,
2013-08-04 07:43:00,65.0,58.0,-100.00,ESE,113,10.0,-999.0,76,-99.99,,,-99.99,,2013-08-04 12:43:00,
2013-08-04 07:53:00,66.0,58.0,-100.00,ESE,113,7.0,-999.0,75,-99.99,,,-99.99,,2013-08-04 12:53:00,
2013-08-04 08:02:00,65.0,58.0,-100.00,ESE,113,12.0,-999.0,77,-99.99,,,-99.99,,2013-08-04 13:02:00,
2013-08-04 08:12:00,65.0,58.0,-100.00,ESE,113,12.0,-999.0,77,-99.99,,,-99.99,,2013-08-04 13:12:00,
2013-08-04 08:22:00,65.0,58.0,-100.00,ESE,113,9.0,-999.0,77,-99.99,,,-99.99,,2013-08-04 13:22:00,
2013-08-04 08:32:00,66.0,58.0,-100.00,SE,135,11.0,-999.0,76,-99.99,,,-99.99,,2013-08-04 13:32:00,
2013-08-04 08:42:00,66.0,58.0,-100.00,SE,135,11.0,-999.0,76,-99.99,,,-99.99,,2013-08-04 13:42:00,
2013-08-04 08:52:00,66.0,58.0,-100.00,SE,135,10.0,-999.0,75,-99.99,,,-99.99,,2013-08-04 13:52:00,
2013-08-04 09:02:00,67.0,59.0,-100.00,SE,135,10.0,-999.0,76,-99.99,,,-99.99,,2013-08-04 14:02:00,
2013-08-04 09:22:00,66.0,59.0,-100.00,SSE,158,9.0,-999.0,78,-99.99,,,-99.99,,2013-08-04 14:22:00,
2013-08-04 09:32:00,66.0,59.0,-100.00,SSE,158,11.0,-999.0,80,-99.99,,,-99.99,,2013-08-04 14:32:00,
2013-08-04 09:43:00,66.0,59.0,-100.00,SSE,158,11.0,-999.0,80,-99.99,,,-99.99,,2013-08-04 14:43:00,
2013-08-04 09:53:00,65.0,60.0,-100.00,SE,135,12.0,-999.0,85,-99.99,,,-99.99,,2013-08-04 14:53:00,
2013-08-04 10:02:00,65.0,61.0,-100.00,SE,135,13.0,-999.0,87,-99.99,,,-99.99,,2013-08-04 15:02:00,
2013-08-04 10:12:00,65.0,61.0,-100.00,SE,135,13.0,-999.0,87,-99.99,,,-99.99,,2013-08-04 15:12:00,
2013-08-04 10:22:00,66.0,62.0,-100.00,SE,135,12.0,-999.0,85,-99.99,,,-99.99,,2013-08-04 15:22:00,
2013-08-04 10:32:00,67.0,63.0,-100.00,SE,135,11.0,-999.0,87,-99.99,,,-99.99,,2013-08-04 15:32:00,
2013-08-04 10:42:00,67.0,63.0,-100.00,SE,135,11.0,-999.0,87,-99.99,,,-99.99,,2013-08-04 15:42:00,
2013-08-04 10:53:00,68.0,63.0,-100.00,SE,135,12.0,-999.0,85,-99.99,,,-99.99,,2013-08-04 15:53:00,
2013-08-04 11:01:00,68.0,63.0,-100.00,SSE,158,11.0,-999.0,86,-99.99,,,-99.99,,2013-08-04 16:01:00,
2013-08-04 11:22:00,69.0,64.0,-100.00,SSE,158,10.0,-999.0,85,-99.99,,,-99.99,,2013-08-04 16:22:00,
2013-08-04 11:32:00,69.0,64.0,-100.00,SSE,158,11.0,-999.0,85,-99.99,,,-99.99,,2013-08-04 16:32:00,
2013-08-04 11:42:00,69.0,64.0,-100.00,SSE,158,11.0,-999.0,85,-99.99,,,-99.99,,2013-08-04 16:42:00,
2013-08-04 11:53:00,71.0,66.0,-100.00,SSE,158,14.0,-999.0,82,-99.99,,,-99.99,,2013-08-04 16:53:00,
2013-08-04 12:02:00,71.0,66.0,-100.00,SSE,158,11.0,-999.0,83,-99.99,,,-99.99,,2013-08-04 17:02:00,
2013-08-04 12:12:00,71.0,66.0,-100.00,SSE,158,11.0,-999.0,83,-99.99,,,-99.99,,2013-08-04 17:12:00,
2013-08-04 12:22:00,72.0,67.0,-100.00,SSE,158,9.0,-999.0,84,-99.99,,,-99.99,,2013-08-04 17:22:00,
2013-08-04 12:32:00,71.0,66.0,-100.00,SSE,158,9.0,-999.0,85,-99.99,,,-99.99,,2013-08-04 17:32:00,
2013-08-04 12:43:00,71.0,66.0,-100.00,SSE,158,9.0,-999.0,85,-99.99,,,-99.99,,2013-08-04 17:43:00,
2013-08-04 12:53:00,71.0,66.0,-100.00,SSE,158,7.0,-999.0,85,-99.99,,,-99.99,,2013-08-04 17:53:00,
2013-08-04 13:02:00,72.0,67.0,-100.00,SE,135,5.0,-999.0,84,-99.99,,,-99.99,,2013-08-04 18:02:00,
2013-08-04 13:12:00,72.0,67.0,-100.00,SE,135,5.0,-999.0,84,-99.99,,,-99.99,,2013-08-04 18:12:00,
2013-08-04 13:22:00,72.0,67.0,-100.00,ESE,113,7.0,-999.0,84,-99.99,,,-99.99,,2013-08-04 18:22:00,
2013-08-04 13:33:00,72.0,67.0,-100.00,ESE,113,8.0,-999.0,84,-99.99,,,-99.99,,2013-08-04 18:33:00,
2013-08-04 13:43:00,72.0,67.0,-100.00,ESE,113,8.0,-999.0,84,-99.99,,,-99.99,,2013-08-04 18:43:00,
2013-08-04 13:52:00,72.0,67.0,-100.00,SE,135,9.0,-999.0,82,-99.99,,,-99.99,,2013-08-04 18:52:00,
2013-08-04 14:02:00,73.0,67.0,-100.00,ESE,113,9.0,-999.0,81,-99.99,,,-99.99,,2013-08-04 19:02:00,
2013-08-04 14:22:00,74.0,67.0,-100.00,ESE,113,6.0,-999.0,80,-99.99,,,-99.99,,2013-08-04 19:22:00,
2013-08-04 14:33:00,74.0,67.0,-100.00,ESE,113,8.0,-999.0,79,-99.99,,,-99.99,,2013-08-04 19:33:00,
2013-08-04 14:43:00,74.0,67.0,-100.00,ESE,113,8.0,-999.0,79,-99.99,,,-99.99,,2013-08-04 19:43:00,
2013-08-04 14:53:00,74.0,68.0,-100.00,ESE,113,10.0,-999.0,80,-99.99,,,-99.99,,2013-08-04 19:53:00,
2013-08-04 15:02:00,77.0,69.0,-100.00,ESE,113,9.0,-999.0,75,-99.99,,,-99.99,,2013-08-04 20:02:00,
2013-08-04 15:12:00,77.0,69.0,-100.00,ESE,113,9.0,-999.0,75,-99.99,,,-99.99,,2013-08-04 20:12:00,
2013-08-04 15:22:00,76.0,68.0,-100.00,SE,135,9.0,-999.0,76,-99.99,,,-99.99,,2013-08-04 20:22:00,
2013-08-04 15:33:00,77.0,68.0,-100.00,SE,135,10.0,-999.0,74,-99.99,,,-99.99,,2013-08-04 20:33:00,
2013-08-04 15:42:00,77.0,68.0,-100.00,SE,135,10.0,-999.0,74,-99.99,,,-99.99,,2013-08-04 20:42:00,
2013-08-04 15:53:00,77.0,68.0,-100.00,SE,135,9.0,-999.0,74,-99.99,,,-99.99,,2013-08-04 20:53:00,
2013-08-04 16:02:00,77.0,68.0,-100.00,SE,135,8.0,-999.0,74,-99.99,,,-99.99,,2013-08-04 21:02:00,
2013-08-04 16:12:00,77.0,68.0,-100.00,SE,135,8.0,-999.0,74,-99.99,,,-99.99,,2013-08-04 21:12:00,
2013-08-04 16:22:00,77.0,69.0,-100.00,SE,135,7.0,-999.0,76,-99.99,,,-99.99,,2013-08-04 21:22:00,
2013-08-04 16:32:00,77.0,69.0,-100.00,ESE,113,8.0,-999.0,76,-99.99,,,-99.99,,2013-08-04 21:32:00,
2013-08-04 16:43:00,77.0,69.0,-100.00,ESE,113,8.0,-999.0,76,-99.99,,,-99.99,,2013-08-04 21:43:00,
2013-08-04 16:53:00,76.0,69.0,-100.00,SE,135,7.0,-999.0,77,-99.99,,,-99.99,,2013-08-04 21:53:00,
2013-08-04 17:02:00,77.0,68.0,-100.00,SE,135,8.0,-999.0,75,-99.99,,,-99.99,,2013-08-04 22:02:00,
2013-08-04 17:12:00,77.0,68.0,-100.00,SE,135,8.0,-999.0,75,-99.99,,,-99.99,,2013-08-04 22:12:00,
2013-08-04 17:22:00,77.0,69.0,-100.00,SE,135,11.0,-999.0,74,-99.99,,,-99.99,,2013-08-04 22:22:00,
2013-08-04 17:32:00,77.0,68.0,-100.00,SSE,158,9.0,-999.0,73,-99.99,,,-99.99,,2013-08-04 22:32:00,
2013-08-04 17:43:00,77.0,68.0,-100.00,SSE,158,9.0,-999.0,73,-99.99,,,-99.99,,2013-08-04 22:43:00,
2013-08-04 17:53:00,77.0,69.0,-100.00,SSE,158,6.0,-999.0,75,-99.99,,,-99.99,,2013-08-04 22:53:00,
2013-08-04 18:02:00,78.0,69.0,-100.00,SE,135,5.0,-999.0,72,-99.99,,,-99.99,,2013-08-04 23:02:00,
2013-08-04 18:22:00,78.0,70.0,-100.00,ESE,113,7.0,-999.0,76,-99.99,,,-99.99,,2013-08-04 23:22:00,
2013-08-04 18:32:00,77.0,70.0,-100.00,ESE,113,8.0,-999.0,77,-99.99,,,-99.99,,2013-08-04 23:32:00,
2013-08-04 18:43:00,77.0,70.0,-100.00,ESE,113,8.0,-999.0,77,-99.99,,,-99.99,,2013-08-04 23:43:00,
2013-08-04 18:53:00,78.0,70.0,-100.00,ESE,113,5.0,-999.0,77,-99.99,,,-99.99,,2013-08-04 23:53:00,
2013-08-04 19:01:00,78.0,70.0,-100.00,SE,135,6.0,-999.0,76,-99.99,,,-99.99,,2013-08-05 00:01:00,
2013-08-04 19:12:00,78.0,70.0,-100.00,SE,135,6.0,-999.0,76,-99.99,,,-99.99,,2013-08-05 00:12:00,
2013-08-04 19:22:00,79.0,70.0,-100.00,SE,135,6.0,-999.0,74,-99.99,,,-99.99,,2013-08-05 00:22:00,
2013-08-04 19:32:00,79.0,70.0,-100.00,SE,135,6.0,-999.0,74,-99.99,,,-99.99,,2013-08-05 00:32:00,
2013-08-04 19:42:00,79.0,70.0,-100.00,SE,135,6.0,-999.0,74,-99.99,,,-99.99,,2013-08-05 00:42:00,
2013-08-04 19:52:00,79.0,70.0,-100.00,SE,135,8.0,-999.0,74,-99.99,,,-99.99,,2013-08-05 00:52:00,
2013-08-04 20:02:00,78.0,70.0,-100.00,SE,135,6.0,-999.0,77,-99.99,,,-99.99,,2013-08-05 01:02:00,
2013-08-04 20:12:00,78.0,70.0,-100.00,SE,135,6.0,-999.0,77,-99.99,,,-99.99,,2013-08-05 01:12:00,
2013-08-04 20:22:00,77.0,70.0,-100.00,SE,135,5.0,-999.0,80,-99.99,,,-99.99,,2013-08-05 01:22:00,
2013-08-04 20:33:00,76.0,70.0,-100.00,SE,135,6.0,-999.0,82,-99.99,,,-99.99,,2013-08-05 01:33:00,
2013-08-04 20:42:00,76.0,70.0,-100.00,SE,135,6.0,-999.0,82,-99.99,,,-99.99,,2013-08-05 01:42:00,
2013-08-04 20:52:00,75.0,70.0,-100.00,SE,135,4.0,-999.0,84,-99.99,,,-99.99,,2013-08-05 01:52:00,
2013-08-04 21:02:00,74.0,70.0,-100.00,SE,135,6.0,-999.0,86,-99.99,,,-99.99,,2013-08-05 02:02:00,
2013-08-04 21:22:00,73.0,69.0,-100.00,SE,135,3.0,-999.0,88,-99.99,,,-99.99,,2013-08-05 02:22:00,
2013-08-04 21:33:00,73.0,70.0,-100.00,SE,135,4.0,-999.0,90,-99.99,,,-99.99,,2013-08-05 02:33:00,
2013-08-04 21:43:00,73.0,70.0,-100.00,SE,135,4.0,-999.0,90,-99.99,,,-99.99,,2013-08-05 02:43:00,
2013-08-04 21:53:00,73.0,70.0,-100.00,ESE,113,4.0,-999.0,90,-99.99,,,-99.99,,2013-08-05 02:53:00,
2013-08-04 22:02:00,73.0,70.0,-100.00,SE,135,6.0,-999.0,91,-99.99,,,-99.99,,2013-08-05 03:02:00,
2013-08-04 22:12:00,73.0,70.0,-100.00,SE,135,6.0,-999.0,91,-99.99,,,-99.99,,2013-08-05 03:12:00,
2013-08-04 22:22:00,73.0,70.0,-100.00,SE,135,6.0,-999.0,90,-99.99,,,-99.99,,2013-08-05 03:22:00,
2013-08-04 22:32:00,73.0,70.0,-100.00,SE,135,8.0,-999.0,90,-99.99,,,-99.99,,2013-08-05 03:32:00,
2013-08-04 22:42:00,73.0,70.0,-100.00,SE,135,8.0,-999.0,90,-99.99,,,-99.99,,2013-08-05 03:42:00,
2013-08-04 22:52:00,72.0,70.0,-100.00,SE,135,7.0,-999.0,91,-99.99,,,-99.99,,2013-08-05 03:52:00,
2013-08-04 23:02:00,72.0,70.0,-100.00,SE,135,8.0,-999.0,92,-99.99,,,-99.99,,2013-08-05 04:02:00,
2013-08-04 23:22:00,72.0,70.0,-100.00,SE,135,6.0,-999.0,93,-99.99,,,-99.99,,2013-08-05 04:22:00,
2013-08-04 23:32:00,71.0,69.0,-100.00,SE,135,6.0,-999.0,93,-99.99,,,-99.99,,2013-08-05 04:32:00,
2013-08-04 23:43:00,71.0,69.0,-100.00,SE,135,6.0,-999.0,93,-99.99,,,-99.99,,2013-08-05 04:43:00,
2013-08-04 23:52:00,71.0,69.0,-100.00,SE,135,5.0,-999.0,94,-99.99,,,-99.99,,2013-08-05 04:52:00,